This is the latest recevied weather packets stored in our database for station/object OE6ACM-10. If no packets are shown the sender has not sent any weather packets the latest 10 day(s).
| Time | Temp. | Humidity | Pressure | Rain* | Wind** | Luminosity | Snow |
|---|---|---|---|---|---|---|---|
| 1777982256 | 35.56° C | 56% | 919.3 hPa | - | - | - | - |
| 1777981956 | 35° C | 61% | 919.4 hPa | - | - | - | - |
| 1777981656 | 34.44° C | 61% | 919.2 hPa | - | - | - | - |
| 1777981356 | 34.44° C | 62% | 919.2 hPa | - | - | - | - |
| 1777981056 | 33.89° C | 63% | 919.2 hPa | - | - | - | - |
| 1777980756 | 33.33° C | 64% | 919.2 hPa | - | - | - | - |
| 1777980456 | 32.78° C | 62% | 919.2 hPa | - | - | - | - |
| 1777980156 | 32.78° C | 67% | 919.4 hPa | - | - | - | - |
| 1777979856 | 32.78° C | 62% | 919 hPa | - | - | - | - |
| 1777979556 | 32.22° C | 64% | 919.2 hPa | - | - | - | - |
| 1777979256 | 31.67° C | 62% | 919.3 hPa | - | - | - | - |
| 1777978956 | 32.22° C | 56% | 919.2 hPa | - | - | - | - |
| 1777978656 | 32.78° C | 56% | 919.2 hPa | - | - | - | - |
| 1777978356 | 32.22° C | 57% | 919.2 hPa | - | - | - | - |
| 1777978056 | 31.67° C | 56% | 919.3 hPa | - | - | - | - |
| 1777977756 | 32.22° C | 55% | 919.2 hPa | - | - | - | - |
| 1777977456 | 32.22° C | 56% | 919.3 hPa | - | - | - | - |
| 1777977156 | 32.22° C | 57% | 919.4 hPa | - | - | - | - |
| 1777976856 | 32.22° C | 55% | 919.4 hPa | - | - | - | - |
| 1777976556 | 32.78° C | 51% | 919.4 hPa | - | - | - | - |
| 1777976256 | 32.22° C | 55% | 919.4 hPa | - | - | - | - |
| 1777975956 | 32.78° C | 57% | 919.4 hPa | - | - | - | - |
| 1777975656 | 31.67° C | 53% | 919.4 hPa | - | - | - | - |
| 1777975356 | 32.22° C | 60% | 919.5 hPa | - | - | - | - |
| 1777975056 | 31.67° C | 56% | 919.7 hPa | - | - | - | - |
* Rain since midnight (hover to see other rain measurements)
** Current wind speed in m/s (hover to see current wind gust speed)